Regional Weather Roundup
Issued by NWS Little Rock, AR

Home | Current Version | Previous Version | Graphics & Text | Print | Product List | Glossary On
Versions: 1 2 3 4 5 6 7 8 9 10 11 12 13 14 15 16 17 18 19 20 21 22 23 24 25 26 27 28 29 30 31 32 33 34 35 36 37 38 39 40 41 42 43 44 45 46 47 48 49 50
000
ASUS44 KLZK 260005
RWRLZK

WEATHER ROUNDUP FOR ARKANSAS
NATIONAL WEATHER SERVICE LITTLE ROCK AR
600 PM CST SUN JAN 25 2015

NOTE: "FAIR" INDICATES FEW OR NO CLOUDS BELOW 12,000 FEET WITH NO
SIGNIFICANT WEATHER AND/OR OBSTRUCTIONS TO VISIBILITY.

ARZ001-003-010-029-260100-
NORTHWEST ARKANSAS

CITY           SKY/WX    TMP DP  RH WIND       PRES   REMARKS
FAYETTEVILLE   CLOUDY    42  32  67 NW18G29   29.99R
6HR MIN TEMP:  42; 6HR MAX TEMP:  45;

FORT SMITH     CLOUDY    51  31  46 NW14G23   30.00R
6HR MIN TEMP:  51; 6HR MAX TEMP:  53;

HARRISON       CLOUDY    40  33  76 NW18G31   29.91R
6HR MIN TEMP:  39; 6HR MAX TEMP:  43; 6HR PCP:  0.01;

BENTONVILLE    CLOUDY    43  30  61 N13G22    30.00R
6HR MIN TEMP:  43; 6HR MAX TEMP:  45;

ROGERS         CLOUDY    41  32  70 NW13G23   29.99R
6HR MIN TEMP:  41; 6HR MAX TEMP:  44;

SILOAM SPGS    CLOUDY    43  28  56 NW16G28   30.02R
6HR MIN TEMP:  43; 6HR MAX TEMP:  46;

HIGHFILL       LGT RAIN  42  32  67 NW23G31   29.98R
6HR MIN TEMP:  42; 6HR MAX TEMP:  45; 6HR PCP: TRACE;

SPRINGDALE     CLOUDY    43  32  65 NW20G30   30.00R
$$

ARZ004-005-016-260100-
NORTH CENTRAL ARKANSAS

CITY           SKY/WX    TMP DP  RH WIND       PRES   REMARKS
BATESVILLE     CLOUDY    45  32  61 W16G28    29.87R
6HR MIN TEMP:  45; 6HR MAX TEMP:  55;

FLIPPIN        CLOUDY    39  32  75 NW14G24   29.91R
6HR MIN TEMP:  39; 6HR MAX TEMP:  48; 6HR PCP:  0.01;

MTN HOME       CLOUDY    39  34  82 NW10G18   29.89R
6HR MIN TEMP:  39; 6HR MAX TEMP:  48; 6HR PCP: TRACE;

$$

ARZ040-041-260100-
WEST CENTRAL ARKANSAS

CITY           SKY/WX    TMP DP  RH WIND       PRES   REMARKS
MENA           CLOUDY    52  34  50 NW17      29.97R
MOUNT IDA      CLOUDY    52  32  46 NW13G21   29.91R
6HR MIN TEMP:  52; 6HR MAX TEMP:  60;

$$

ARZ009-017-025-026-028-260100-
NORTHEAST ARKANSAS

CITY           SKY/WX    TMP DP  RH WIND       PRES   REMARKS
JONESBORO      CLOUDY    45  35  68 W17G26    29.82R
6HR MIN TEMP:  45; 6HR MAX TEMP:  54; 6HR PCP: TRACE;

NEWPORT        CLOUDY    45  35  67 NW26      29.86R
6HR MIN TEMP:  45; 6HR MAX TEMP:  58; 6HR PCP: TRACE;

WALNUT RIDGE   CLOUDY    45  34  65 NW24      29.82R
6HR MIN TEMP:  45; 6HR MAX TEMP:  54; 6HR PCP:  0.03;

BLYTHEVILLE    CLOUDY    47  40  76 W16G23    29.77R
6HR MIN TEMP:  45; 6HR MAX TEMP:  52; 6HR PCP: TRACE;

$$

ARZ022-023-033-042-044-260100-
CENTRAL ARKANSAS

CITY           SKY/WX    TMP DP  RH WIND       PRES   REMARKS
LITTLE ROCK    CLOUDY    51  30  44 NW20G37   29.91R
6HR MIN TEMP:  51; 6HR MAX TEMP:  63;

N LITTLE ROCK  CLOUDY    48  36  61 W13G28    29.91R
6HR MIN TEMP:  48; 6HR MAX TEMP:  59;

JACKSONVILLE   CLOUDY    49  33  52 NW18G26   29.89R
6HR MIN TEMP:  49; 6HR MAX TEMP:  59; 6HR PCP:  0.03;

SEARCY         CLOUDY    47  33  58 NW14G20   29.90R
6HR MIN TEMP:  47; 6HR MAX TEMP:  60; 6HR PCP: TRACE;

HOT SPRINGS    CLOUDY    52  32  46 NW8G20    29.93R
6HR MIN TEMP:  52; 6HR MAX TEMP:  60;

RUSSELLVILLE   CLOUDY    49  32  52 NW20G29   29.93R
6HR MIN TEMP:  49; 6HR MAX TEMP:  56;

CLINTON        CLOUDY    45  34  65 NW8G17    29.93R
$$

ARZ036-260100-
EAST ARKANSAS

CITY           SKY/WX    TMP DP  RH WIND       PRES   REMARKS
WEST MEMPHIS   CLOUDY    47  39  74 NW13G22   29.81R
6HR MIN TEMP:  46; 6HR MAX TEMP:  57; 6HR PCP:  0.25;

$$

ARZ050-053-066-070-073-260100-
SOUTHWEST ARKANSAS

CITY           SKY/WX    TMP DP  RH WIND       PRES   REMARKS
ARKADELPHIA    CLOUDY    55  33  43 W9        29.95R
6HR MIN TEMP:  54; 6HR MAX TEMP:  63;

CAMDEN         CLOUDY    57  30  35 MISG      29.93R
TEXARKANA      PTCLDY    55  33  43 NW13G24   29.98R
6HR MIN TEMP:  55; 6HR MAX TEMP:  63; 6HR PCP: TRACE;

EL DORADO      CLOUDY    57  33  40 NW10G20   29.94R
6HR MIN TEMP:  57; 6HR MAX TEMP:  63;

DE QUEEN       LGT RAIN  54  31  41 NW12G20   29.98R
6HR MIN TEMP:  54; 6HR MAX TEMP:  62; 6HR PCP: TRACE;

$$

ARZ056-057-069-260100-
SOUTHEAST ARKANSAS

CITY           SKY/WX    TMP DP  RH WIND       PRES   REMARKS
PINE BLUFF     CLOUDY    53  33  46 W17       29.89R
6HR MIN TEMP:  53; 6HR MAX TEMP:  63;

STUTTGART      CLOUDY    52  36  54 NW21      29.88R
6HR MIN TEMP:  52; 6HR MAX TEMP:  63;

MONTICELLO     CLOUDY    55  33  43 W10G17    29.89R
6HR MIN TEMP:  55; 6HR MAX TEMP:  63; 6HR PCP: TRACE;


$$





USA.gov is the U.S. government's official web portal to all federal, state and local government web resources and services.